Location: Tr�vern
(48.0333°N, 4.6000°W)
Time: 19:09:02
(UTC+00:00)

Cosmos 2360 - Pass Details

Date: 14 July 2020
Orbit: 844 x 858 km, 70.8° (Epoch: 11 August)

Event Time Altitude Azimuth Distance (km) Brightness Sun altitude
Rises 02:33:38 0° 331° (NNW) 3,442 7.8 -14.6°
Reaches altitude 10° 02:36:06 10° 331° (NNW) 2,502 7.0 -14.3°
Maximum altitude 02:41:52 83° 245° (WSW) 871 4.2 -13.8°
Drops below altitude 10° 02:47:36 10° 157° (SSE) 2,486 6.3 -13.3°
Sets 02:50:02 0° 157° (SSE) 3,417 7.0 -13.1°
